User: anonymous   Login
Location: *
(17.3280°S, 114.7300°W)
Time: 15:59:59
(UTC+00:00)
Language:

Okean O Rocket - Orbit

View from above orbital plane
View from above orbital plane
View from above satellite
View from above satellite

Ground track
Ground track

The orbit data is extracted from the following two-line orbital elements,

1 25861U 99039B   20296.15198215  .00000020  00000-0  10287-4 0  9997
2 25861  98.2110 300.8268 0016892 109.5017 315.1704 14.78595658146483
Epoch (UTC): 22 October 2020 03:38:51
Eccentricity: 0.0016892
inclination: 98.2110°
perigee height: 622 km
apogee height: 645 km
right ascension of ascending node: 300.8268°
argument of perigee: 109.5017°
revolutions per day: 14.78595658
mean anomaly at epoch: 315.1704°
orbit number at epoch: 14648

The dashed part of the orbit path shows where the satellite is in the earth's shadow,  

DLR